Regional Weather Roundup
Issued by NWS Mobile, AL

Home | Current Version | Previous Version | Text Only | Print | Product List | Glossary On
Versions: 1 2 3 4 5 6 7 8 9 10 11 12 13 14 15 16 17 18 19 20 21 22 23 24 25 26 27
000
ASUS44 KMOB 011812
RWRMOB
REGIONAL WEATHER ROUNDUP
NATIONAL WEATHER SERVICE MOBILE AL
100 PM CDT SUN MAY 01 2016

NOTE: "FAIR" INDICATES FEW OR NO CLOUDS BELOW 12,000 FEET WITH NO
      SIGNIFICANT WEATHER AND/OR OBSTRUCTIONS TO VISIBILITY.

  * THESE STATIONS ARE PART OF THE UNIVERSITY OF SOUTH ALABAMA
    MESONET AND ARE NOT UNDER NWS OR FAA QUALITY CONTROL.

ALZ061>064-011900-
COASTAL ALABAMA

CITY           SKY/WX    TMP DP  RH WIND       PRES   REMARKS
MOBILE REG APT CLOUDY    79  73  82 S14       30.00F
6HR MIN TEMP:  73; 6HR MAX TEMP:  80;

BROOKLEY FIELD CLOUDY    79  74  84 SE10      30.01S
6HR MIN TEMP:  74; 6HR MAX TEMP:  80;

USA CAMPUS*    NOT AVBL
DOG RIVER*     NOT AVBL


CITY           SKY/WX    TMP DP  RH WIND       PRES   REMARKS
MOUNT VERNON*  NOT AVBL
SARALAND*      NOT AVBL
BAY MINETTE*   NOT AVBL
LOXLEY*        NOT AVBL
ROBERTSDALE*   NOT AVBL
FAIRHOPE*      NOT AVBL
ELBERTA*       NOT AVBL
FOLEY*         NOT AVBL
GRAND BAY*     NOT AVBL
DAUPHIN ISLND* NOT AVBL
BON SCOUR NWR* NOT AVBL
GULF SHORES    CLOUDY    80  74  84 SE9G18    29.99F

$$

ALZ051>060-011900-
INTERIOR SOUTHWEST AND SOUTH CENTRAL ALABAMA

CITY           SKY/WX    TMP DP  RH WIND       PRES   REMARKS
GREENVILLE     NOT AVBL
EVERGREEN      CLOUDY    83  68  60 S8        30.01S
6HR MIN TEMP:  69; 6HR MAX TEMP:  84;

CASTLEBERRY*   NOT AVBL
ATMORE*        NOT AVBL
DIXIE*         NOT AVBL
ANDALUSIA/OPP  CLOUDY    87  66  49 SW6       30.01S
6HR MIN TEMP:  73; 6HR MAX TEMP:  89;

ANDALUSIA*     NOT AVBL
FLORALA APT    CLOUDY    84  67  56 SW10      30.02F
6HR MIN TEMP:  70; 6HR MAX TEMP:  84;

FLORALA*       NOT AVBL

$$

FLZ001>006-011900-
WESTERN FLORIDA PANHANDLE

CITY           SKY/WX    TMP DP  RH WIND       PRES   REMARKS
PENSACOLA      PTSUNNY   80  73  79 SE10G17   30.01R
6HR MIN TEMP:  75; 6HR MAX TEMP:  81;

NAS PENSACOLA  PTSUNNY   80  73  79 E10       30.00S
6HR MIN TEMP:  75; 6HR MAX TEMP:  81;

MILTON         LGT RAIN  83  70  64 S14       30.01S
6HR MIN TEMP:  72; 6HR MAX TEMP:  83; 6HR PCP: TRACE;

WHTNG S FIELD  MOSUNNY   85  71  63 S12       30.01S
6HR MIN TEMP:  74; 6HR MAX TEMP:  85;



CITY           SKY/WX    TMP DP  RH WIND       PRES   REMARKS
WALNUT HILL*   NOT AVBL
JAY*           NOT AVBL
DUKE FIELD     PTSUNNY   83  68  60 S12       30.00S
CRESTVIEW      MOSUNNY   84  68  58 S13       30.02S
6HR MIN TEMP:  73; 6HR MAX TEMP:  85;

VALPARAISO     PTSUNNY   82  73  73 SE15      30.01S
6HR MIN TEMP:  75; 6HR MAX TEMP:  82;

DESTIN         CLOUDY    81  75  82 SE13      30.01S
6HR MIN TEMP:  77; 6HR MAX TEMP:  82;


$$

MSZ076-079-011900-
INTERIOR SOUTHEAST MISSISSIPPI

CITY           SKY/WX    TMP DP  RH WIND       PRES   REMARKS
LEAKESVILLE*   NOT AVBL
AGRICOLA*      NOT AVBL

$$

MARINE OBSERVATIONS

STATION/POSITION TIME  TEMP    WIND        PRES    WAVE
                       AIR SEA DIR/SP/G            HT/PER
                 (UTC) (F)     (DEG/KT/KT) (MB)    (FT/S)
PASCAGOULA       1700   77     140/  8/ 10 1015.4R
PETIT BOIS ISLND 1706   77     140/ 10/ 12 1016.1R
GRAND BAY        1600   77     150/ 12     1016.0S
KATRINA CUT      1700   76     150/ 11       N/A
CEDAR POINT      1700   78     160/ 12     1015.6R
E DAUPHIN ISLAND 1700   77     140/ 10/ 12 1015.4R
MIDDLE BAY LIGHT 1700   77     140/ 13     1015.9R
USCG MOBILE BAY  1700   77 76  170/  8/ 12 1016.5R
STATE DOCKS      1700   79 73              1015.7R
MEAHER PARK      1700   78     170/ 13     1014.9R
WEEKS BAY        1600   80                   N/A
FORT MORGAN      1700   77     160/  9/ 11 1015.4R
12 S ORANGE BCH  1750   77 76  130/  6/  8 1014.7F   4/ 7
PENSACOLA BAY    1700   89 69  130/  2/  5 1016.4R
64 S DAUPHIN ISL 1700   77 76  150/ 10/ 14 1014.6R

$$

SELECTED LOCATIONS ACROSS THE REGION

CITY           SKY/WX    TMP DP  RH WIND       PRES   REMARKS
NEW ORLEANS    TSTM      72  69  90 NE10      30.00R FOG
GULFPORT       TSTM      76  73  91 SE6       29.99R
PASCAGOULA AP  CLOUDY    78  72  81 S7        29.99S
PASCAGOULA*    NOT AVBL
HATTIESBURG    LGT RAIN  75  73  93 S3        30.01S FOG
LAUREL         PTSUNNY   72  70  94 SW3       30.01S
MERIDIAN       LGT RAIN  71  69  93 CALM      30.02R FOG
JACKSON        CLOUDY    74  70  87 SE7       29.94F
MONTGOMERY     PTSUNNY   84  67  56 S5        30.00F
TROY           MOSUNNY   84  68  58 MISG      30.02F
KINSTON*       NOT AVBL
GENEVA*        NOT AVBL
ASHFORD*       NOT AVBL
DOTHAN         MOSUNNY   86  64  47 SW9       30.05S
PANAMA CITY    PTSUNNY   83  69  62 S12       30.02R

$$





USA.gov is the U.S. government's official web portal to all federal, state and local government web resources and services.